• In Hungary
  • List of Countries
  • For 7 days
  • Water Temperature
  • Satellite Maps
  • Weather Map
  • News
  • Weather Widgets
  • user-avatar
    Login

    Hourly Weather Biernatki

    Today, 23 October, Tuesday

    Time Temperature Precipitation Wind Pressure Humidity
    00:00 +5°C° 0 mm 4 mps 763 mmHg 84%
    01:00 +4°C° 0 mm 3 mps 762 mmHg 87%
    02:00 +4°C° 0 mm 4 mps 761 mmHg 86%
    03:00 +4°C° 0 mm 4 mps 761 mmHg 85%
    04:00 +3°C° 0 mm 5 mps 760 mmHg 85%
    05:00 +3°C° 0 mm 6 mps 759 mmHg 82%
    06:00 +4°C° 0 mm 6 mps 758 mmHg 80%
    07:00 +4°C° 0 mm 7 mps 757 mmHg 78%
    08:00 +4°C° 0.5 mm 8 mps 755 mmHg 77%
    09:00 +5°C° 0.5 mm 9 mps 754 mmHg 76%
    10:00 +5°C° 0.5 mm 10 mps 753 mmHg 75%
    11:00 +6°C° 1 mm 11 mps 752 mmHg 76%
    12:00 +6°C° 1 mm 11 mps 750 mmHg 78%
    13:00 +7°C° 1 mm 11 mps 749 mmHg 79%
    14:00 +7°C° 0.8 mm 11 mps 748 mmHg 80%
    15:00 +8°C° 0.8 mm 11 mps 747 mmHg 82%
    16:00 +9°C° 0.8 mm 11 mps 746 mmHg 83%
    17:00 +9°C° 1.4 mm 11 mps 746 mmHg 83%
    18:00 +9°C° 1.4 mm 10 mps 745 mmHg 82%
    19:00 +9°C° 1.4 mm 10 mps 745 mmHg 82%
    20:00 +10°C° 0.8 mm 9 mps 745 mmHg 80%
    21:00 +10°C° 0.8 mm 9 mps 745 mmHg 79%
    22:00 +9°C° 0.8 mm 8 mps 744 mmHg 78%
    23:00 +8°C° 0.2 mm 9 mps 744 mmHg 77%

    Tomorrow, 24 October, Wednesday

    Time Temperature Precipitation Wind Pressure Humidity
    00:00 +7°C° 0.2 mm 9 mps 744 mmHg 75%
    01:00 +7°C° 0.2 mm 9 mps 744 mmHg 74%
    02:00 +7°C° 0.3 mm 9 mps 744 mmHg 72%
    03:00 +6°C° 0.3 mm 10 mps 745 mmHg 69%
    04:00 +6°C° 0.3 mm 10 mps 745 mmHg 66%
    05:00 +6°C° 0 mm 9 mps 746 mmHg 66%
    06:00 +5°C° 0 mm 8 mps 746 mmHg 65%
    07:00 +4°C° 0 mm 8 mps 747 mmHg 64%
    08:00 +5°C° 0 mm 9 mps 748 mmHg 58%
    09:00 +6°C° 0 mm 10 mps 749 mmHg 53%
    10:00 +7°C° 0 mm 11 mps 749 mmHg 47%
    11:00 +7°C° 0 mm 11 mps 750 mmHg 44%
    12:00 +7°C° 0 mm 10 mps 750 mmHg 42%
    13:00 +8°C° 0 mm 10 mps 751 mmHg 39%
    14:00 +7°C° 0 mm 9 mps 751 mmHg 41%
    15:00 +7°C° 0 mm 8 mps 752 mmHg 43%
    16:00 +6°C° 0 mm 7 mps 752 mmHg 45%
    17:00 +6°C° 0 mm 7 mps 753 mmHg 48%
    18:00 +5°C° 0 mm 6 mps 753 mmHg 51%
    19:00 +4°C° 0 mm 6 mps 754 mmHg 55%
    20:00 +4°C° 0 mm 6 mps 754 mmHg 58%
    21:00 +4°C° 0 mm 6 mps 754 mmHg 62%
    22:00 +5°C° 0 mm 5 mps 754 mmHg 66%
    23:00 +3°C° 0 mm 5 mps 754 mmHg 68%

    Day after tomorrow, 25 October, Thursday

    Time Temperature Precipitation Wind Pressure Humidity
    00:00 +3°C° 0 mm 5 mps 754 mmHg 70%
    01:00 +3°C° 0 mm 5 mps 754 mmHg 71%
    02:00 +3°C° 0.1 mm 5 mps 753 mmHg 75%
    03:00 +5°C° 0.1 mm 5 mps 752 mmHg 78%
    04:00 +5°C° 0.1 mm 5 mps 752 mmHg 82%
    05:00 +5°C° 0.8 mm 6 mps 751 mmHg 84%
    06:00 +7°C° 0.8 mm 6 mps 750 mmHg 87%
    07:00 +8°C° 0.8 mm 7 mps 749 mmHg 90%
    08:00 +9°C° 0.4 mm 8 mps 749 mmHg 89%
    09:00 +10°C° 0.4 mm 8 mps 748 mmHg 87%
    10:00 +11°C° 0.4 mm 9 mps 748 mmHg 86%
    11:00 +11°C° 0.4 mm 9 mps 748 mmHg 84%
    12:00 +11°C° 0.4 mm 9 mps 748 mmHg 81%
    13:00 +11°C° 0.4 mm 9 mps 748 mmHg 79%
    14:00 +11°C° 0.3 mm 9 mps 748 mmHg 79%
    15:00 +11°C° 0.3 mm 9 mps 748 mmHg 78%
    16:00 +10°C° 0.3 mm 9 mps 748 mmHg 78%
    17:00 +10°C° 0.1 mm 8 mps 749 mmHg 77%
    18:00 +9°C° 0.1 mm 7 mps 749 mmHg 77%
    19:00 +8°C° 0.1 mm 6 mps 749 mmHg 76%
    20:00 +8°C° 0 mm 6 mps 750 mmHg 77%
    21:00 +7°C° 0 mm 5 mps 750 mmHg 79%
    22:00 +7°C° 0 mm 5 mps 750 mmHg 80%
    23:00 +6°C° 0 mm 5 mps 751 mmHg 81%

    26 October, Friday

    Time Temperature Precipitation Wind Pressure Humidity
    00:00 +6°C° 0 mm 5 mps 751 mmHg 82%
    01:00 +6°C° 0 mm 5 mps 751 mmHg 84%
    02:00 +6°C° 0 mm 5 mps 751 mmHg 85%
    03:00 +5°C° 0 mm 5 mps 751 mmHg 86%
    04:00 +5°C° 0 mm 4 mps 751 mmHg 87%
    05:00 +5°C° 0 mm 4 mps 751 mmHg 86%
    06:00 +6°C° 0 mm 4 mps 751 mmHg 85%
    07:00 +6°C° 0 mm 4 mps 750 mmHg 83%
    08:00 +7°C° 0 mm 4 mps 750 mmHg 81%
    09:00 +7°C° 0 mm 4 mps 750 mmHg 78%
    10:00 +8°C° 0 mm 4 mps 750 mmHg 76%
    11:00 +10°C° 0.2 mm 4 mps 750 mmHg 79%
    12:00 +10°C° 0.2 mm 4 mps 750 mmHg 81%
    13:00 +10°C° 0.2 mm 4 mps 749 mmHg 84%
    14:00 +10°C° 0.1 mm 4 mps 749 mmHg 83%
    15:00 +11°C° 0.1 mm 4 mps 748 mmHg 82%
    16:00 +11°C° 0.1 mm 3 mps 748 mmHg 81%
    17:00 +11°C° 0.1 mm 4 mps 748 mmHg 82%
    18:00 +10°C° 0.1 mm 4 mps 747 mmHg 82%
    19:00 +10°C° 0.1 mm 4 mps 747 mmHg 83%
    20:00 +9°C° 0 mm 5 mps 747 mmHg 82%
    21:00 +8°C° 0 mm 5 mps 747 mmHg 80%
    22:00 +8°C° 0 mm 5 mps 746 mmHg 79%
    23:00 +7°C° 0 mm 5 mps 746 mmHg 79%

    27 October, Saturday

    Time Temperature Precipitation Wind Pressure Humidity
    00:00 +7°C° 0 mm 5 mps 746 mmHg 79%
    01:00 +7°C° 0 mm 6 mps 746 mmHg 79%
    02:00 +7°C° 0 mm 6 mps 746 mmHg 79%
    03:00 +7°C° 0 mm 6 mps 745 mmHg 80%
    04:00 +7°C° 0 mm 6 mps 745 mmHg 80%
    05:00 +7°C° 0 mm 6 mps 746 mmHg 80%
    06:00 +5°C° 0 mm 6 mps 746 mmHg 81%
    07:00 +5°C° 0 mm 6 mps 746 mmHg 81%
    08:00 +7°C° 0 mm 6 mps 746 mmHg 77%
    09:00 +7°C° 0 mm 6 mps 747 mmHg 72%
    10:00 +6°C° 0 mm 7 mps 747 mmHg 68%
    11:00 +8°C° 0 mm 6 mps 748 mmHg 65%
    12:00 +8°C° 0 mm 6 mps 748 mmHg 61%
    13:00 +9°C° 0 mm 6 mps 748 mmHg 58%
    14:00 +8°C° 0 mm 5 mps 748 mmHg 60%
    15:00 +8°C° 0 mm 4 mps 749 mmHg 62%
    16:00 +8°C° 0 mm 3 mps 749 mmHg 64%
    17:00 +8°C° 0 mm 3 mps 749 mmHg 66%
    18:00 +7°C° 0 mm 2 mps 750 mmHg 69%
    19:00 +6°C° 0 mm 2 mps 750 mmHg 71%
    20:00 +6°C° 0 mm 2 mps 750 mmHg 72%
    21:00 +6°C° 0 mm 2 mps 750 mmHg 74%
    22:00 +6°C° 0 mm 2 mps 751 mmHg 75%
    23:00 +6°C° 0 mm 2 mps 751 mmHg 77%

    28 October, Sunday

    Time Temperature Precipitation Wind Pressure Humidity
    00:00 +5°C° 0 mm 2 mps 751 mmHg 78%
    01:00 +5°C° 0 mm 2 mps 751 mmHg 80%
    02:00 +6°C° 0 mm 1 mps 751 mmHg 82%
    03:00 +6°C° 0 mm 1 mps 751 mmHg 83%
    04:00 +6°C° 0 mm 1 mps 751 mmHg 85%
    05:00 +6°C° 0 mm 1 mps 751 mmHg 86%
    06:00 +5°C° 0 mm 2 mps 751 mmHg 86%
    07:00 +5°C° 0 mm 2 mps 751 mmHg 87%
    08:00 +5°C° 0 mm 2 mps 751 mmHg 85%
    09:00 +6°C° 0 mm 2 mps 751 mmHg 82%
    10:00 +6°C° 0 mm 2 mps 751 mmHg 79%
    11:00 +5°C° 0.1 mm 3 mps 751 mmHg 77%
    12:00 +7°C° 0.1 mm 3 mps 751 mmHg 75%
    13:00 +7°C° 0.1 mm 3 mps 751 mmHg 74%
    14:00 +6°C° 0.3 mm 4 mps 751 mmHg 74%
    15:00 +6°C° 0.3 mm 4 mps 751 mmHg 75%
    16:00 +5°C° 0.3 mm 4 mps 750 mmHg 76%
    17:00 +5°C° 0.3 mm 5 mps 750 mmHg 77%
    18:00 +5°C° 0.3 mm 5 mps 750 mmHg 78%
    19:00 +3°C° 0.3 mm 6 mps 750 mmHg 79%
    20:00 +3°C° 0.5 mm 6 mps 750 mmHg 79%
    21:00 +3°C° 0.5 mm 7 mps 750 mmHg 79%
    22:00 +3°C° 0.5 mm 7 mps 749 mmHg 79%
    23:00 +1°C° 1.1 mm 8 mps 749 mmHg 80%

    29 October, Monday

    Time Temperature Precipitation Wind Pressure Humidity
    00:00 +1°C° 1.1 mm 8 mps 748 mmHg 81%
    01:00 +1°C° 1.1 mm 8 mps 748 mmHg 82%
    02:00 0°C° 0.7 mm 8 mps 747 mmHg 83%
    03:00 0°C° 0.7 mm 8 mps 746 mmHg 85%
    04:00 -1°C° 0.7 mm 8 mps 746 mmHg 86%
    05:00 -1°C° 0.5 mm 8 mps 745 mmHg 87%
    06:00 -1°C° 0.5 mm 8 mps 745 mmHg 88%
    07:00 -1°C° 0.5 mm 8 mps 744 mmHg 89%
    08:00 -1°C° 0.3 mm 8 mps 744 mmHg 90%
    09:00 -1°C° 0.3 mm 8 mps 743 mmHg 90%
    10:00 -1°C° 0.3 mm 7 mps 743 mmHg 90%
    11:00 -1°C° 0.7 mm 7 mps 742 mmHg 91%
    12:00 -1°C° 0.7 mm 6 mps 742 mmHg 92%
    13:00 -1°C° 0.7 mm 6 mps 741 mmHg 93%
    14:00 0°C° 0.4 mm 5 mps 741 mmHg 94%
    15:00 0°C° 0.4 mm 4 mps 741 mmHg 94%
    16:00 +1°C° 0.4 mm 4 mps 740 mmHg 95%
    17:00 +2°C° 0.7 mm 3 mps 740 mmHg 96%
    18:00 +2°C° 0.7 mm 3 mps 740 mmHg 96%
    19:00 +3°C° 0.7 mm 2 mps 740 mmHg 97%
    20:00 +3°C° 0.5 mm 2 mps 740 mmHg 97%
    21:00 +3°C° 0.5 mm 2 mps 739 mmHg 97%
    22:00 +3°C° 0.5 mm 2 mps 739 mmHg 97%
    23:00 +3°C° 0.9 mm 2 mps 739 mmHg 97%
    Show more